Regional Weather Roundup
Issued by NWS

Home | Current Version | Previous Version | Graphics & Text | Print | Product List | Glossary On
Versions: 1 2 3 4 5 6 7 8 9 10 11 12 13 14 15 16 17 18 19 20 21 22 23 24 25 26 27 28 29 30 31 32 33 34 35 36 37 38 39 40 41 42 43 44 45 46 47 48 49 50
994
ASUS43 KLSX 220307
RWRMO

WEATHER SUMMARY FOR MISSOURI
NATIONAL WEATHER SERVICE SPRINGFIELD MO
1000 PM CDT MON AUG 21 2017

NOTE: "FAIR" INDICATES FEW OR NO CLOUDS BELOW 12,000 FEET WITH NO
       SIGNIFICANT WEATHER AND/OR OBSTRUCTIONS TO VISIBILITY.
       CURRENT SKY AND/OR WEATHER CONDITIONS ARE NOT AVAILABLE FOR
       CHILLICOTHE AND FARMINGTON.

MOZ001>031-035>038-043-044-053-054-220400-
...NORTHERN AND WESTERN MISSOURI...

CITY           SKY/WX    TMP DP  RH WIND       PRES   REMARKS
KANSAS CTY INT TSTM      69  68  96 N7        30.01F FOG
KANSAS C DTWN  TSTM      70  70 100 N20G25    29.99R FOG
LEE`S SUMMIT   MOCLDY    77  72  84 N23G32    30.02R
ST JOSEPH      TSTM      70  69  97 S8        29.99R
CHILLICOTHE      N/A     71  71 100 NW3       29.98R
KIRKSVILLE     CLOUDY    73 N/A N/A CALM      29.97R

$$
MOZ066>068-077>081-088>096-101>105-220400-
...SOUTHWEST MISSOURI...

CITY           SKY/WX    TMP DP  RH WIND       PRES   REMARKS
SPRINGFIELD    CLEAR     79  74  84 S9        30.03S
JOPLIN         CLEAR     83  76  79 S14       30.02R HX  91
BRANSON        CLEAR     77  72  83 S6        30.08S

$$
MOZ032>034-039>042-045>050-055>058-069>072-220400-
...CENTRAL MISSOURI...

CITY           SKY/WX    TMP DP  RH WIND       PRES   REMARKS
COLUMBIA       CLEAR     73  71  93 S6        29.98S
JEFFERSON CITY CLEAR     77  76  96 CALM      29.96F
ROLLA          CLEAR     76  73  91 S7        30.03F
SEDALIA        CLOUDY    74  72  93 S7        29.98R
WHITEMAN AFB   MOCLDY    77  77 100 S6        29.96R
WARRENSBURG    PTCLDY    77  73  88 SE3       29.95R
OSAGE BEACH    CLEAR     79  75  87 S6        30.00F

$$
MOZ051-052-059>065-220400-
...EAST CENTRAL MISSOURI...

CITY           SKY/WX    TMP DP  RH WIND       PRES   REMARKS
ST LOUIS INTL  TSTM      83  73  72 S9        30.00F
SPIRIT OF STL  CLOUDY    80  75  84 CALM      29.98F
ST CHARLES     LGT RAIN  78  75  90 SE9       29.97F

$$
MOZ072>076-082>087-097>100-106>115-220400-
...SOUTH CENTRAL AND SOUTHEAST MISSOURI...

CITY           SKY/WX    TMP DP  RH WIND       PRES   REMARKS
CAPE GIRARDEAU CLEAR     77  71  82 S6        30.05S
FARMINGTON     CLEAR     79  75  87 S6        30.06F
POPLAR BLUFF   CLEAR     81  76  84 S6        30.06S
WEST PLAINS    CLEAR     80  72  76 S8        30.08F

$$



USA.gov is the U.S. government's official web portal to all federal, state and local government web resources and services.